This is the latest recevied weather packets stored in our database for station/object VU3HGG-15. If no packets are shown the sender has not sent any weather packets the latest 10 day(s).
| Time | Temp. | Humidity | Pressure | Rain* | Wind** | Luminosity | Snow |
|---|---|---|---|---|---|---|---|
| 1788263226 | 27.78° C | 54% | 909.1 hPa | - | - | - | - |
| 1788262626 | 27.78° C | 54% | 909.1 hPa | - | - | - | - |
| 1788262027 | 27.78° C | 56% | 908.9 hPa | - | - | - | - |
| 1788261426 | 27.22° C | 58% | 908.8 hPa | - | - | - | - |
| 1788260827 | 26.67° C | 59% | 908.8 hPa | - | - | - | - |
| 1788260226 | 26.67° C | 59% | 908.8 hPa | - | - | - | - |
| 1788259848 | 26.67° C | 60% | 908.9 hPa | - | - | - | - |
| 1788259249 | 26.67° C | 60% | 908.9 hPa | - | - | - | - |
| 1788258649 | 26.67° C | 60% | 908.9 hPa | - | - | - | - |
| 1788258049 | 26.67° C | 61% | 909 hPa | - | - | - | - |
| 1788257448 | 26.11° C | 61% | 909 hPa | - | - | - | - |
| 1788256849 | 26.11° C | 61% | 909.2 hPa | - | - | - | - |
| 1788256249 | 26.67° C | 61% | 909.2 hPa | - | - | - | - |
| 1788255649 | 26.67° C | 62% | 909.1 hPa | - | - | - | - |
| 1788255054 | 26.67° C | 63% | 909 hPa | - | - | - | - |
| 1788254449 | 26.11° C | 64% | 909.1 hPa | - | - | - | - |
| 1788253850 | 26.11° C | 64% | 909.1 hPa | - | - | - | - |
| 1788253250 | 26.11° C | 67% | 909.2 hPa | - | - | - | - |
| 1788252649 | 27.22° C | 59% | 909.3 hPa | - | - | - | - |
| 1788252050 | 27.22° C | 57% | 909.4 hPa | - | - | - | - |
| 1788251449 | 27.22° C | 58% | 909.5 hPa | - | - | - | - |
| 1788250849 | 27.22° C | 58% | 909.7 hPa | - | - | - | - |
| 1788250250 | 27.22° C | 58% | 909.8 hPa | - | - | - | - |
| 1788249649 | 27.22° C | 57% | 909.8 hPa | - | - | - | - |
| 1788249050 | 27.22° C | 57% | 909.9 hPa | - | - | - | - |
* Rain since midnight (hover to see other rain measurements)
** Current wind speed in m/s (hover to see current wind gust speed)